McCook, NE

7:15 PM CST on December 09, 2019 (GMT -0600)
McCook Municipal

Weather History for KMCK - September, 2019

Change the Weather History Date:

Monday, September 30, 2019

  Actual Average Record
Temperature  
Mean Temperature 81 °F 58 °F  
Max Temperature 97 °F 73 °F 95 °F (1928)
Min Temperature 66 °F 42 °F 22 °F (1912)
Cooling Degree Days 16    
Growing Degree Days 31 (Base 50)    
Moisture  
Dew Point 60 °F    
Average Humidity 57    
Maximum Humidity 79    
Minimum Humidity 18    
Precipitation  
Precipitation 0.00 in 0.04 in 0.52 in (1983)
Month to date precipitation 1.44  
Year to date precipitation 19.15  
Sea Level Pressure  
Sea Level Pressure 29.66 in    
Wind  
Wind Speed 15 mph ()    
Max Wind Speed 25 mph    
Max Gust Speed 39 mph    
Visibility 10.0 miles    
Events Thunderstorm    
T = Trace of Precipitation, MM = Missing Value Source: Averaged Metar Reports

Daily Weather History Graph

Daily Weather History Graph

Search for Another Location

Airport or City:

Astronomy

Sep. 30, 2019 Rise Set
Actual Time 7:37 AM CDT 7:26 PM CDT
Civil Twilight 7:10 AM CDT 7:53 PM CDT
Nautical Twilight 6:38 AM CDT 8:25 PM CDT
Astronomical Twilight 6:07 AM CDT 8:56 PM CDT
Moon 9:43 AM CDT (9/30) 9:03 PM CDT (9/30)
Length of Visible Light 12h 43m
Length of Day
11h 48m
Waxing Crescent, 6% of the Moon is Illuminated
Sep 30
Waxing Crescent
Oct 5
First Quarter
Oct 13
Full
Oct 21
Last Quarter
Oct 27
New

Hourly Weather History & Observations

Time (CDT) Temp. Heat Index Dew Point Humidity Pressure Visibility Wind Dir Wind Speed Gust Speed Precip Events Conditions
12:53 AM 78.1 °F - 66.0 °F 66% 29.62 in 10.0 mi South 24.2 mph 38.0 mph N/A   Clear
1:53 AM 77.0 °F - 66.0 °F 69% 29.62 in 10.0 mi South 21.9 mph 34.5 mph N/A   Clear
2:53 AM 77.0 °F - 66.0 °F 69% 29.64 in 10.0 mi South 17.3 mph 33.4 mph N/A   Clear
3:53 AM 75.9 °F - 64.9 °F 69% 29.63 in 10.0 mi South 13.8 mph 25.3 mph N/A   Clear
4:53 AM 73.9 °F - 64.9 °F 73% 29.64 in 10.0 mi South 10.4 mph - N/A   Clear
5:53 AM 73.0 °F - 64.9 °F 76% 29.64 in 10.0 mi South 9.2 mph 19.6 mph N/A   Clear
6:53 AM 73.0 °F - 64.9 °F 76% 29.63 in 10.0 mi South 18.4 mph - N/A   Clear
7:53 AM 73.0 °F - 64.9 °F 76% 29.64 in 10.0 mi South 18.4 mph 29.9 mph N/A   Clear
8:53 AM 75.0 °F - 66.0 °F 73% 29.66 in 10.0 mi SSW 17.3 mph 26.5 mph N/A   Clear
9:53 AM 79.0 °F - 64.9 °F 62% 29.67 in 10.0 mi SSW 19.6 mph 28.8 mph N/A   Clear
10:53 AM 82.9 °F 83.7 °F 62.1 °F 49% 29.68 in 10.0 mi SW 20.7 mph 31.1 mph N/A   Clear
11:53 AM 88.0 °F 87.1 °F 59.0 °F 37% 29.67 in 10.0 mi SW 17.3 mph 27.6 mph N/A   Clear
12:53 PM 91.9 °F 89.5 °F 53.1 °F 27% 29.66 in 10.0 mi SW 16.1 mph 24.2 mph N/A   Clear
1:53 PM 95.0 °F - 45.0 °F 18% 29.65 in 10.0 mi SSW 18.4 mph 29.9 mph N/A   Clear
2:53 PM 96.1 °F - 46.0 °F 18% 29.64 in 10.0 mi SSW 13.8 mph 24.2 mph N/A   Clear
3:53 PM 96.1 °F - 46.9 °F 19% 29.63 in 10.0 mi SW 10.4 mph 23.0 mph N/A   Clear
4:53 PM 96.1 °F 93.5 °F 53.1 °F 23% 29.61 in 10.0 mi South 18.4 mph 23.0 mph N/A   Clear
5:53 PM 91.9 °F 91.5 °F 60.1 °F 34% 29.59 in 10.0 mi SSE 11.5 mph - N/A   Scattered Clouds
6:53 PM 78.1 °F - 61.0 °F 56% 29.64 in 10.0 mi NNE 15.0 mph 25.3 mph N/A   Mostly Cloudy
7:51 PM 73.4 °F - 59.0 °F 61% 29.74 in 10.0 mi NNE 25.3 mph 39.1 mph N/A Thunderstorm Mostly Cloudy
7:53 PM 73.0 °F - 59.0 °F 61% 29.68 in 10.0 mi NNE 23.0 mph 39.1 mph N/A Thunderstorm Mostly Cloudy
8:11 PM 71.1 °F - 59.0 °F 66% 29.76 in 10.0 mi NE 18.4 mph 29.9 mph N/A   Mostly Cloudy
8:53 PM 68.0 °F - 59.0 °F 73% 29.70 in 10.0 mi NE 17.3 mph 35.7 mph N/A   Mostly Cloudy
9:53 PM 66.9 °F - 59.0 °F 76% 29.75 in 10.0 mi NE 15.0 mph - N/A   Overcast
10:53 PM 66.0 °F - 59.0 °F 78% 29.75 in 10.0 mi ENE 5.8 mph 16.1 mph N/A   Overcast
11:53 PM 66.9 °F - 60.1 °F 79% 29.73 in 10.0 mi ENE 12.7 mph - N/A   Overcast